Weather History for K21D - January, 2014

Change the Weather History Date:

Thursday, January 23, 2014

  Actual Average (KSTP) Record (KSTP)
Temperature  
Mean Temperature -10 °F -  
Max Temperature -4 °F 21 °F 39 °F (2006)
Min Temperature -16 °F 7 °F -16 °F (2014)
Degree Days  
Heating Degree Days 75    
Moisture  
Dew Point -16 °F    
Average Humidity 71    
Maximum Humidity 85    
Minimum Humidity 60    
Precipitation  
Precipitation 0.00 in - - ()
Sea Level Pressure  
Sea Level Pressure 30.55 in    
Wind  
Wind Speed 8 mph (West)    
Max Wind Speed 15 mph    
Max Gust Speed -    
Visibility 10 miles    
Events      
Averages and records for this station are not official NWS values.
T = Trace of Precipitation, MM = Missing Value Source: NWS Daily Summary

Daily Weather History Graph

Daily Weather History Graph

Search for Another Location

Airport or City:

Trip Planner

Search our weather history database for the weather conditions in past years. The results will help you decide how hot, cold, wet, or windy it might be!

Date:

Astronomy

Jan. 23, 2014 Rise Set
Actual Time 7:40 AM CST 5:06 PM CST
Civil Twilight 7:08 AM CST 5:38 PM CST
Nautical Twilight 6:32 AM CST 6:14 PM CST
Astronomical Twilight 5:57 AM CST 6:49 PM CST
Moon No Moon Rise 10:55 AM CST (1/23)
Length of Visible Light 10h 30m
Length of Day
9h 26m
Waning Gibbous, 55% of the Moon is Illuminated
Jan 23
Waning Gibbous
Jan 23
Last Quarter
Jan 30
New
Feb 6
First Quarter
Feb 14
Full

Hourly Weather History & Observations

Time (CST) Temp. Windchill Dew Point Humidity Pressure Visibility Wind Dir Wind Speed Gust Speed Precip Events Conditions
12:11 AM -5.8 °F -23.4 °F -14.8 °F 65% 30.45 in 10.0 mi NW 10.4 mph - N/A   Clear
12:32 AM -5.8 °F -21.2 °F -14.8 °F 65% 30.46 in 10.0 mi NW 8.1 mph - N/A   Clear
12:51 AM -7.6 °F -23.4 °F -14.8 °F 71% 30.47 in 10.0 mi NW 8.1 mph - N/A   Clear
1:11 AM -7.6 °F -24.6 °F -14.8 °F 71% 30.49 in 10.0 mi NW 9.2 mph - N/A   Clear
1:32 AM -7.6 °F -25.7 °F -16.6 °F 65% 30.50 in 10.0 mi WNW 10.4 mph - N/A   Clear
1:51 AM -9.4 °F -27.9 °F -16.6 °F 71% 30.51 in 10.0 mi NW 10.4 mph - N/A   Clear
2:11 AM -9.4 °F -25.6 °F -16.6 °F 71% 30.51 in 10.0 mi NW 8.1 mph - N/A   Clear
2:31 AM -9.4 °F -26.8 °F -16.6 °F 71% 30.53 in 10.0 mi WNW 9.2 mph - N/A   Clear
2:51 AM -9.4 °F -26.8 °F -16.6 °F 71% 30.53 in 10.0 mi WNW 9.2 mph - N/A   Clear
3:12 AM -11.2 °F -26.4 °F -18.4 °F 70% 30.54 in 10.0 mi WNW 6.9 mph - N/A   Clear
3:31 AM -11.2 °F -29.0 °F -18.4 °F 70% 30.55 in 10.0 mi WNW 9.2 mph - N/A   Clear
3:51 AM -11.2 °F -29.0 °F -18.4 °F 70% 30.56 in 10.0 mi WNW 9.2 mph - N/A   Clear
4:12 AM -13.0 °F -31.3 °F -18.4 °F 77% 30.57 in 10.0 mi WNW 9.2 mph - N/A   Clear
4:31 AM -13.0 °F -27.0 °F -18.4 °F 77% 30.58 in 10.0 mi NW 5.8 mph - N/A   Clear
4:51 AM -13.0 °F -30.0 °F -18.4 °F 77% 30.59 in 10.0 mi NW 8.1 mph - N/A   Clear
5:12 AM -13.0 °F -30.0 °F -18.4 °F 77% 30.60 in 10.0 mi NW 8.1 mph - N/A   Clear
5:31 AM -14.8 °F -34.6 °F -20.2 °F 77% 30.60 in 10.0 mi NW 10.4 mph - N/A   Clear
5:51 AM -14.8 °F -30.8 °F -20.2 °F 77% 30.61 in 10.0 mi NW 6.9 mph - N/A   Clear
6:12 AM -14.8 °F -33.5 °F -20.2 °F 77% 30.62 in 10.0 mi NW 9.2 mph - N/A   Clear
6:31 AM -14.8 °F -33.5 °F -20.2 °F 77% 30.63 in 10.0 mi NW 9.2 mph - N/A   Clear
6:51 AM -14.8 °F -32.2 °F -22.0 °F 70% 30.64 in 10.0 mi NW 8.1 mph - N/A   Clear
7:12 AM -14.8 °F -34.6 °F -22.0 °F 70% 30.64 in 10.0 mi NW 10.4 mph - N/A   Clear
7:31 AM -14.8 °F -32.2 °F -22.0 °F 70% 30.65 in 10.0 mi NW 8.1 mph - N/A   Clear
7:52 AM -16.6 °F -31.3 °F -22.0 °F 76% 30.66 in 10.0 mi NW 5.8 mph - N/A   Clear
8:12 AM -16.6 °F -34.4 °F -22.0 °F 76% 30.66 in 10.0 mi NW 8.1 mph - N/A   Clear
8:31 AM -14.8 °F -30.8 °F -22.0 °F 70% 30.67 in 10.0 mi WNW 6.9 mph - N/A   Clear
8:52 AM -14.8 °F -32.2 °F -22.0 °F 70% 30.68 in 10.0 mi WNW 8.1 mph - N/A   Clear
9:12 AM -14.8 °F -30.8 °F -22.0 °F 70% 30.68 in 10.0 mi WNW 6.9 mph - N/A   Clear
9:31 AM -14.8 °F -29.1 °F -22.0 °F 70% 30.69 in 10.0 mi WNW 5.8 mph - N/A   Clear
9:51 AM -13.0 °F -30.0 °F -20.2 °F 70% 30.69 in 10.0 mi WNW 8.1 mph - N/A   Clear
10:12 AM -13.0 °F -27.0 °F -20.2 °F 70% 30.70 in 10.0 mi NW 5.8 mph - N/A   Clear
10:31 AM -13.0 °F -27.0 °F -18.4 °F 77% 30.71 in 10.0 mi WNW 5.8 mph - N/A   Clear
10:52 AM -11.2 °F -26.4 °F -18.4 °F 70% 30.71 in 10.0 mi WNW 6.9 mph - N/A   Clear
11:11 AM -9.4 °F -20.9 °F -18.4 °F 65% 30.70 in 10.0 mi WNW 4.6 mph - N/A   Clear
11:31 AM -9.4 °F -20.9 °F -18.4 °F 65% 30.69 in 10.0 mi West 4.6 mph - N/A   Clear
11:52 AM -7.6 °F -20.6 °F -16.6 °F 65% 30.68 in 10.0 mi WNW 5.8 mph - N/A   Clear
12:11 PM -7.6 °F -18.8 °F -16.6 °F 65% 30.68 in 10.0 mi West 4.6 mph - N/A   Clear
12:31 PM -7.6 °F -20.6 °F -16.6 °F 65% 30.67 in 10.0 mi WNW 5.8 mph - N/A   Clear
12:52 PM -5.8 °F -19.9 °F -16.6 °F 60% 30.67 in 10.0 mi WNW 6.9 mph - N/A   Clear
1:11 PM -5.8 °F -18.4 °F -16.6 °F 60% 30.65 in 10.0 mi WNW 5.8 mph - N/A   Clear
1:31 PM -5.8 °F -22.4 °F -16.6 °F 60% 30.64 in 10.0 mi West 9.2 mph - N/A   Clear
1:52 PM -4.0 °F -19.0 °F -14.8 °F 60% 30.64 in 10.0 mi West 8.1 mph - N/A   Clear
2:11 PM -4.0 °F -19.0 °F -14.8 °F 60% 30.63 in 10.0 mi West 8.1 mph - N/A   Clear
2:31 PM -4.0 °F -19.0 °F -14.8 °F 60% 30.62 in 10.0 mi West 8.1 mph - N/A   Clear
2:52 PM -4.0 °F -21.2 °F -14.8 °F 60% 30.63 in 10.0 mi West 10.4 mph - N/A   Clear
3:11 PM -4.0 °F -17.8 °F -13.0 °F 65% 30.62 in 10.0 mi West 6.9 mph - N/A   Clear
3:32 PM -4.0 °F -17.8 °F -13.0 °F 65% 30.61 in 10.0 mi West 6.9 mph - N/A   Clear
3:52 PM -4.0 °F -16.3 °F -13.0 °F 65% 30.61 in 10.0 mi West 5.8 mph - N/A   Clear
4:11 PM -4.0 °F -19.0 °F -13.0 °F 65% 30.60 in 10.0 mi West 8.1 mph - N/A   Clear
4:32 PM -4.0 °F -17.8 °F -13.0 °F 65% 30.59 in 10.0 mi WSW 6.9 mph - N/A   Clear
4:52 PM -4.0 °F -17.8 °F -14.8 °F 60% 30.59 in 10.0 mi WSW 6.9 mph - N/A   Clear
5:11 PM -5.8 °F -18.4 °F -14.8 °F 65% 30.59 in 10.0 mi WSW 5.8 mph - N/A   Clear
5:32 PM -5.8 °F -19.9 °F -14.8 °F 65% 30.57 in 10.0 mi SW 6.9 mph - N/A   Clear
5:52 PM -5.8 °F -19.9 °F -14.8 °F 65% 30.56 in 10.0 mi SW 6.9 mph - N/A   Clear
6:11 PM -7.6 °F -24.6 °F -14.8 °F 71% 30.54 in 10.0 mi SW 9.2 mph - N/A   Clear
6:32 PM -7.6 °F -22.1 °F -14.8 °F 71% 30.53 in 10.0 mi SW 6.9 mph - N/A   Clear
6:51 PM -7.6 °F -23.4 °F -13.0 °F 77% 30.52 in 10.0 mi SW 8.1 mph - N/A   Clear
7:11 PM -7.6 °F -20.6 °F -13.0 °F 77% 30.51 in 10.0 mi SSW 5.8 mph - N/A   Clear
7:32 PM -9.4 °F -22.7 °F -14.8 °F 77% 30.49 in 10.0 mi South 5.8 mph - N/A   Clear
7:51 PM -9.4 °F -24.3 °F -14.8 °F 77% 30.46 in 10.0 mi South 6.9 mph - N/A   Clear
8:11 PM -9.4 °F -24.3 °F -14.8 °F 77% 30.44 in 10.0 mi South 6.9 mph - N/A   Clear
8:32 PM -7.6 °F -23.4 °F -13.0 °F 77% 30.42 in 10.0 mi South 8.1 mph - N/A   Clear
8:51 PM -9.4 °F -25.6 °F -13.0 °F 84% 30.41 in 10.0 mi South 8.1 mph - N/A   Clear
9:11 PM -7.6 °F -24.6 °F -13.0 °F 77% 30.39 in 10.0 mi South 9.2 mph - N/A   Clear
9:32 PM -7.6 °F -24.6 °F -13.0 °F 77% 30.37 in 10.0 mi South 9.2 mph - N/A   Clear
9:51 PM -7.6 °F -25.7 °F -13.0 °F 77% 30.35 in 10.0 mi South 10.4 mph - N/A   Clear
10:12 PM -5.8 °F -24.4 °F -11.2 °F 77% 30.33 in 10.0 mi South 11.5 mph - N/A   Clear
10:31 PM -5.8 °F -23.4 °F -9.4 °F 84% 30.31 in 10.0 mi South 10.4 mph - N/A   Clear
10:51 PM -5.8 °F -24.4 °F -9.4 °F 84% 30.28 in 10.0 mi South 11.5 mph - N/A   Clear
11:12 PM -5.8 °F -23.4 °F -9.4 °F 84% 30.25 in 10.0 mi South 10.4 mph - N/A   Clear
11:31 PM -4.0 °F -22.1 °F -7.6 °F 85% 30.22 in 10.0 mi South 11.5 mph - N/A   Clear
11:51 PM -4.0 °F -24.5 °F -7.6 °F 85% 30.20 in 10.0 mi South 15.0 mph - N/A   Clear